Showing default

SES 12, 43488

Orbit data source: Space-Track

SES 12, 43488 is a payload satellite owned by SES (LU) in GEO that was launched on Mon, 04 Jun 2018 UTC via an FALCON 9 launch vehicle from the Air Force Eastern Test Range (AFETR). Payload-class satellites include a variety of spacecraft equipped with specific instruments for various scientific and technological missions. These include communications satellites like Starlink; space stations such as the ISS; scientific satellites like the Hubble; Earth observation satellites from companies like Planet Labs, Umbra, and HawkEye 360; GPS; miniature CubeSats for education and research; and military/defense satellites.

Not visible in the next 10 days
Identifier
43488, 2018-049A
Orbit
GEO
Country
Flag of LULU / SES
Related business
Manufacturer
Airbus/Toulouse
Mission
Operational Commercial Communications
Bus & Motor
EUROSTAR 3000E, EOR
Mass
5,384 kg wet, ~3,000 kg dry
Launch date (UTC)
2018-06-04 (7 years ago)
Launch vehicle
FALCON 9
Launch site
Air Force Eastern Test Range (AFETR)
Object type
Payload
Rocket body
Debris
Shape & HBR
Box + 2 Pan, 19.6 m
Radar Cross Section
49.877 m², Large (>1 m²)

Expand to show TLE details & history
Last TLE update: 21 hours ago

TLE from 21 hours ago
0 SES 12
1 43488U 18049A   25242.11690065  .00000000  00000-0  00000-0 0  9992
2 43488   0.0163  90.9784 0001409 136.4918 248.1639  1.00268620 26503
Epoch: 2025-08-30T02:48Z
TLE epoch observation values (Epoch: 2025-08-30T02:48:20.216Z)
Latitude
0.00382°
Longitude
94.97572°
Altitude
35,789.163 km
Speed
3.075 km/s
True Right ascension
07h 42m 27s
True Declination
0° 00' 14"
Sunlit
Object was in daylight at epoch
Visualization orbit readout
Latitude
Unknown
Longitude
Unknown
Altitude
Unknown
Speed
Unknown
Apparent Right ascension
Unknown
Apparent Declination
Unknown
Sunlit
N/A
Visualization observer readout
Local Sidereal Time
15:44:54
Azimuth
Unknown
Elevation
Unknown
Doppler factor
Unknown
Orbital elements
Apogee altitude
35,794.494 km
Perigee altitude
35,782.611 km
Semi-major axis
42,166.69 km
Eccentricity
0.00014
Inclination
0.0163°
RAAN
90.9784°
Arg. of periapsis
136.4918°
True anomaly
248.14891°
Mean anomaly
248.1639°
Eccentric anomaly
248.15641°
Mean motion
0.25066 °/min
Orbital period
1,436.2 mins
BSTAR
0
Loading maneuver chart data...
Computing Atmospheric mass density...
Loading historical data...
Loading historical data...
Loading historical data...
Loading historical data...
Loading historical data...
Loading historical data...
Loading historical data...
Other satellites on launch #49 in the year 2018 (2018-06-04 UTC)

Documentation

Showing up to 5 results
|